BREEZE-M DEB, 38884

Orbit data source: Space-Track

BREEZE-M DEB, 38884 is space debris in LEO originally from a launch on Mon, 06 Aug 2012 UTC launched from the Tyuratam Missile And Space Complex (TTMTR). Debris objects in space refer to the collection of defunct objects orbiting the Earth. Examples of debris include non-operational satellites, rocket bodies, and fragments generated from explosions, collisions, or faulty payload assembly.

Loading next visibility...
Identifier
38884, 2012-044R
Orbit
LEO
Country
Flag of CISCIS
Related business
Manufacturer
Khrunichev
Mission
Spacecraft
Bus & Motor
BRIZ, Unknown motor
Mass
Unknown
Launch date (UTC)
2012-08-06 (14 years ago)
Launch vehicle
Unknown
Launch site
Tyuratam Missile And Space Complex (TTMTR)
Object type
Payload
Rocket body
Debris
Shape & HBR
Unknown shape, 0.4 m
Radar Cross Section
Medium (>0.1 m² and <1 m²)

Expand to show TLE details & history
Last TLE update: 3 days ago

TLE from 3 days ago
0 BREEZE-M DEB
1 38884U 12044R   26171.03331979  .00017921  47854-5  39088-3 0  9998
2 38884  49.9750 188.2210 1864115  48.7308 325.9730 11.77955085543149
Epoch: 2026-06-20T00:47Z
TLE epoch observation values (Epoch: 2026-06-20T00:47:58.829Z)
Latitude
0.00001°
Longitude
-92.02787°
Altitude
634.272 km
Speed
8.054 km/s
True Right ascension
12h 32m 53s
True Declination
0° 00' 00"
Sunlit
Object was in daylight at epoch
Visualization orbit readout
Latitude
Unknown
Longitude
Unknown
Altitude
Unknown
Speed
Unknown
Apparent Right ascension
Unknown
Apparent Declination
Unknown
Sunlit
N/A
Visualization observer readout
Local Sidereal Time
01:06:53
Azimuth
Unknown
Elevation
Unknown
Doppler factor
Unknown
Orbital elements
Apogee altitude
3,302.89 km
Perigee altitude
260.683 km
Semi-major axis
8,159.924 km
Eccentricity
0.18641
Inclination
49.975°
RAAN
188.221°
Arg. of periapsis
48.7308°
True anomaly
311.35676°
Mean anomaly
325.973°
Eccentric anomaly
318.96032°
Mean motion
2.94452 °/min
Orbital period
122.26 mins
BSTAR
0.00039088
Loading maneuver chart data...
Computing Atmospheric mass density...

Documentation

Showing up to 5 results
|